Temperature
28 29 29 29 29 29 29 29 29 29 29 28 27 26 25 24 23 22 22 21 20 20 19 19 19 19 19 19 19 19 19 19 19 19 18 18 18 18 18 18 17 17 17 17
27 28 28 28 28 28 28 28 28 28 28 28 26 24 23 22 22 22 21 21 20 19 19 19 19 19 19 19 19 18 18 18 18 18 18 18 18 18 17 17 17 17 17 17
27 27 27 27 27 27 27 27 28 28 27 25 24 23 22 22 21 21 21 20 19 19 19 18 18 18 18 18 18 18 18 18 18 18 18 18 17 17 17 17 17 17 17 17
27 26 25 26 26 26 26 26 26 25 25 24 23 22 21 21 20 20 20 19 19 19 18 18 18 18 18 17 17 17 17 17 17 18 17 17 17 17 17 16 16 16 16 16
26 26 26 25 25 25 25 25 24 24 23 22 21 22 21 20 19 19 18 18 18 18 18 17 17 17 17 17 17 17 17 17 17 17 17 17 17 17 16 16 16 16 16 16
25 25 25 25 24 24 25 24 22 22 22 21 21 23 22 19 18 18 17 17 17 17 17 17 17 17 17 16 16 17 17 17 17 17 16 16 16 16 16 16 16 16 16 16
25 25 25 23 23 23 24 23 21 21 20 20 21 21 18 17 17 17 17 17 17 17 17 16 16 16 16 16 16 16 16 16 16 16 16 16 16 16 16 15 15 15 15 15
24 24 24 21 22 23 22 20 20 19 19 18 18 17 17 17 16 16 16 16 16 16 16 16 16 16 16 16 16 16 16 15 16 16 16 15 15 15 15 15 15 15 15 15
22 22 19 19 20 19 19 19 18 18 17 17 17 17 16 16 16 16 16 15 15 15 15 15 15 15 15 15 15 15 15 15 15 15 15 15 15 15 15 15 15 15 14 14
20 19 19 18 18 18 18 18 17 17 17 17 16 16 16 15 15 15 15 15 15 15 15 15 15 14 14 15 15 15 15 15 14 14 14 14 14 14 14 14 14 14 14 14
19 19 18 18 17 17 17 16 16 16 16 16 16 15 15 15 14 14 14 14 14 14 14 14 14 14 14 14 14 14 14 14 14 14 14 14 14 14 14 14 14 14 13 13
20 18 19 17 16 16 16 16 16 15 15 15 15 15 14 14 14 14 14 14 13 13 13 13 13 13 13 13 13 13 13 14 14 14 13 13 13 13 13 13 13 13 13 13
17 16 16 16 15 15 15 15 15 15 14 14 14 14 14 13 13 13 13 13 13 13 13 13 13 13 13 13 13 13 13 13 13 13 13 13 13 13 13 12 13 13 13 12
15 15 15 15 15 15 15 14 14 14 14 13 13 13 13 13 13 13 12 12 12 12 12 12 12 12 12 12 12 12 12 12 13 13 13 13 12 12 12 12 12 12 12 12
15 15 15 15 14 14 14 14 14 14 13 13 13 13 12 12 12 12 12 12 12 12 12 12 12 12 12 12 12 12 12 12 12 12 12 12 12 12 12 12 12 12 11 11
14 14 14 14 14 14 14 14 14 13 13 13 12 12 12 12 11 11 11 11 11 11 11 11 11 11 11 11 12 12 12 12 12 12 12 12 12 12 12 11 11 11 11 11
14 14 14 14 14 14 14 14 13 13 12 12 12 12 11 11 11 11 11 11 11 11 11 11 11 11 11 11 11 11 11 11 11 11 11 11 11 11 11 11 11 11 10 10
14 14 13 13 13 13 13 13 12 12 12 11 11 11 11 11 11 11 10 10 10 10 10 10 10 10 10 10 10 11 11 11 11 11 11 11 11 11 11 11 10 10 10 10
13 13 13 13 13 12 12 12 12 11 11 11 11 11 11 10 10 10 10 10 10 10 10 10 10 10 10 10 10 10 10 11 10 10 10 10 10 10 10 10 10 10 10 10
12 12 12 12 12 12 12 11 11 11 11 11 11 10 10 10 10 10 10 10 10 10 10 10 10 10 10 10 10 10 10 10 10 10 10 10 10 10 10 10 10 10 10 10
12 12 12 12 11 11 11 11 11 11 11 10 10 10 10 10 10 10 10 10 10 10 10 10 10 10 10 10 10 10 10 10 10 10 10 10 10 10 10 10 10 10 10 9
11 11 11 11 11 11 11 11 11 10 10 10 10 10 10 10 10 10 10 10 10 10 9 10 10 10 10 10 10 10 10 10 10 10 10 10 10 10 10 10 10 9 9 9
11 11 11 11 11 11 11 10 10 10 10 10 10 10 10 10 10 10 10 10 9 9 9 9 9 9 10 10 9 10 10 10 10 10 10 10 10 10 10 9 9 9 9 9
11 11 11 11 11 11 10 10 10 10 10 10 10 9 9 10 10 10 10 9 9 9 9 9 9 9 9 9 10 10 10 10 10 10 10 10 10 10 9 9 9 9 9 9
10 11 11 11 11 11 10 10 10 10 10 10 10 10 10 10 9 9 9 9 9 9 9 9 9 9 9 9 9 9 9 9 9 9 9 9 9 9 9 9 9 9 9 8
10 11 11 10 10 10 11 10 10 10 10 10 10 10 10 10 9 9 9 9 9 9 9 9 9 9 9 9 9 9 9 9 9 9 9 9 9 9 9 9 8 8 8 8
10 10 10 10 10 10 10 10 10 10 10 10 10 10 10 9 9 9 9 9 9 9 9 9 9 9 9 9 9 9 9 9 9 9 9 9 8 8 8 8 8 8 8 8
Wind_Speed
10 8 11 13 13 13 14 14 14 13 11 7 5 4 4 4 5 5 6 6 6 6 6 6 6 6 6 7 7 7 8 8 7 7 6 6 6 5 5 6 6 6 6 7
10 9 10 10 11 12 12 12 12 11 8 2 3 4 4 4 4 5 5 6 6 6 6 5 5 5 6 6 6 7 7 7 6 6 6 6 5 5 5 6 6 6 6 7
11 10 11 12 9 10 10 9 10 10 5 3 4 4 4 4 4 4 4 5 5 5 4 4 4 5 6 6 6 7 7 6 6 5 5 5 5 5 5 5 6 6 6 6
9 10 15 5 2 5 6 5 4 2 2 3 3 4 4 3 3 3 3 4 4 4 4 3 3 4 5 6 6 6 6 6 5 5 5 5 5 4 4 4 5 5 6 6
10 13 10 5 4 4 6 4 1 2 4 4 4 5 5 4 3 2 2 2 2 2 3 3 3 4 4 5 5 5 5 4 4 5 5 5 5 5 5 5 5 6 6 6
9 12 12 5 4 2 5 6 3 3 4 4 3 4 3 3 2 2 2 2 2 2 1 2 2 3 5 4 4 4 3 3 3 4 4 5 5 5 5 5 7 6 6 6
11 11 5 3 3 5 7 2 4 4 4 3 1 2 2 1 2 2 2 2 2 2 2 2 3 3 4 3 3 2 2 3 3 4 4 5 5 5 5 6 6 6 6 7
9 11 5 3 3 2 2 5 4 4 3 3 4 4 3 3 2 2 2 2 2 2 1 1 1 3 3 2 1 1 2 2 3 4 4 4 4 4 4 5 6 6 6 7
3 1 4 3 4 4 4 4 4 3 3 3 3 2 3 3 3 3 2 2 1 1 1 1 1 0 1 1 2 2 2 3 3 4 4 3 4 4 4 5 5 5 5 5
1 2 4 4 4 4 4 4 3 3 3 2 1 2 2 2 3 3 2 2 2 1 1 1 2 1 2 2 2 2 3 4 4 4 4 4 4 4 4 4 5 5 5 5
3 3 4 3 3 3 3 3 3 2 2 1 1 1 1 1 2 2 2 2 2 2 2 2 2 2 2 2 2 2 3 4 5 4 4 4 4 4 5 4 4 5 5 5
3 3 2 3 2 2 2 2 2 2 2 2 2 1 1 2 2 3 3 3 3 3 3 3 2 2 2 2 3 4 4 4 4 4 4 4 4 4 2 3 2 3 4 5
0 2 1 3 3 2 2 2 2 2 2 1 1 1 2 2 2 3 4 4 4 4 4 3 3 3 3 3 3 4 5 4 4 4 4 4 4 4 4 2 2 2 2 2
2 2 3 3 3 3 3 2 2 2 1 1 1 2 2 2 3 4 4 5 5 5 4 4 4 4 3 3 4 5 5 4 4 4 4 3 3 4 4 3 2 2 2 3
2 2 3 3 3 3 3 2 2 1 0 1 1 1 2 2 3 4 4 4 4 4 4 4 4 4 4 4 4 5 5 4 3 3 3 2 3 4 3 3 3 2 1 1
2 3 3 3 4 4 3 2 1 1 0 1 1 2 2 2 3 3 4 4 4 5 5 5 5 5 4 4 4 4 3 2 3 3 3 2 3 3 3 3 2 1 2 1
4 3 3 3 3 3 3 2 1 1 1 1 1 2 2 2 2 3 4 4 4 5 5 5 5 5 4 4 4 4 3 1 2 3 3 3 3 3 3 2 2 2 2 1
2 2 2 2 3 2 2 1 1 1 1 1 1 2 2 2 2 3 4 4 4 4 4 4 4 4 4 4 3 3 3 2 2 2 2 2 2 2 2 2 2 2 2 1
2 2 2 3 3 3 2 2 2 2 1 2 2 2 2 2 2 3 3 3 3 4 4 3 3 3 3 3 3 2 2 2 2 2 2 2 2 2 2 1 1 2 1 1
2 2 3 3 3 3 3 3 3 2 2 2 2 2 2 2 2 3 3 3 3 3 3 3 2 2 2 2 3 2 2 2 2 2 2 2 2 2 1 1 1 1 1 1
1 2 3 3 3 3 3 3 3 3 2 2 2 2 3 3 3 3 3 3 3 3 3 3 3 3 2 2 3 2 1 1 1 1 1 1 2 1 1 1 1 1 0 0
2 2 3 3 3 3 3 3 3 2 1 1 1 2 2 2 2 2 2 3 3 3 3 3 3 3 3 4 2 2 1 1 1 1 1 2 2 2 2 2 1 1 1 1
3 3 3 3 3 3 2 2 2 1 1 1 1 2 2 2 2 2 2 2 3 4 4 3 3 3 4 3 2 2 2 2 2 2 2 2 2 2 2 2 2 2 2 2
2 2 2 3 3 3 3 2 1 1 1 1 1 1 1 1 2 2 2 2 3 4 3 2 2 4 5 3 3 2 2 2 3 3 3 3 3 2 2 2 2 2 2 2
2 2 3 2 2 2 2 1 1 2 2 2 2 1 1 1 2 2 2 2 2 3 2 2 3 5 4 3 3 3 3 3 2 3 3 3 3 2 2 2 3 3 2 2
2 2 2 2 2 1 1 1 1 1 1 1 0 0 1 1 1 1 1 2 2 2 2 2 2 3 2 2 2 2 3 2 2 2 2 2 2 2 2 2 2 2 2 2
3 3 2 2 1 1 1 1 0 0 0 1 1 1 1 1 1 1 1 1 1 2 2 2 2 2 2 2 2 2 2 2 1 1 1 2 2 2 1 1 1 1 1 1
Wind_Direction
243 238 220 221 219 217 228 243 252 253 249 233 208 186 161 152 148 151 150 147 145 144 146 153 158 162 165 170 173 177 181 187 190 192 194 201 208 214 219 223 227 231 238 239
224 223 219 219 220 218 226 235 243 249 248 212 150 144 147 150 153 159 157 149 144 144 145 150 159 165 170 176 176 179 184 186 185 189 193 201 209 213 218 224 230 231 236 241
219 210 214 217 218 219 219 231 239 245 241 158 157 159 155 148 152 153 146 147 149 153 150 150 158 165 175 179 177 180 185 187 189 193 198 205 212 214 220 227 234 238 241 242
221 208 227 213 184 217 214 227 253 268 123 153 156 149 137 127 122 126 136 136 149 158 155 158 160 162 169 172 175 179 183 187 192 200 206 212 215 218 225 232 238 245 248 249
224 223 219 186 189 207 212 207 174 163 133 126 129 146 138 95 82 94 104 115 128 144 162 160 163 168 169 169 172 175 181 190 199 207 212 217 223 227 233 241 245 247 249 251
228 233 231 193 148 195 212 211 151 151 142 140 158 197 137 59 32 42 65 95 120 134 166 175 174 174 178 182 182 186 198 206 210 214 219 226 233 235 236 239 240 240 243 248
230 235 226 88 132 186 223 200 133 153 153 161 165 21 74 39 30 42 60 80 103 136 164 197 191 186 187 194 199 202 215 221 218 216 224 232 240 244 244 242 242 241 241 243
230 234 221 85 157 200 60 81 108 111 118 103 77 77 88 75 55 46 58 81 104 132 150 188 196 196 204 223 263 270 254 243 239 238 242 238 244 249 246 243 239 238 237 242
262 248 74 83 81 73 86 99 101 103 103 99 102 96 89 70 47 37 43 55 59 85 79 47 8 243 257 325 334 307 276 257 256 252 249 244 241 241 240 237 242 243 242 243
171 128 114 105 89 88 96 91 88 104 119 123 120 99 83 57 36 20 16 7 358 350 334 350 355 332 314 318 311 282 261 255 250 246 244 243 248 244 247 249 250 249 248 248
196 161 145 129 94 91 87 80 84 83 103 112 109 101 74 39 19 4 348 339 328 317 309 316 327 315 313 310 295 274 263 256 252 244 243 245 249 260 257 262 269 264 259 255
219 180 194 163 132 118 113 96 87 79 71 55 49 34 18 12 358 346 332 319 311 307 308 310 304 295 290 281 269 264 261 261 257 252 243 242 245 255 254 261 255 258 271 272
154 165 154 150 151 147 134 111 92 76 63 33 17 4 340 340 336 337 332 323 314 309 307 306 302 299 299 292 281 269 267 265 261 256 248 246 252 259 263 248 198 204 218 219
127 140 148 155 158 151 137 122 104 79 59 41 4 338 333 332 332 336 330 327 323 313 305 302 301 301 301 290 281 275 272 267 261 264 259 249 255 260 262 267 263 247 194 178
182 181 165 161 161 160 160 161 157 132 52 12 356 342 341 334 332 332 330 328 327 325 321 315 309 308 309 297 289 287 285 283 276 277 272 267 268 268 271 271 272 257 222 153
140 132 151 168 180 182 184 190 195 195 282 344 347 346 341 338 340 338 337 333 326 326 327 322 316 315 312 306 300 287 280 292 291 284 277 280 276 279 285 281 278 267 243 235
178 183 187 191 196 203 211 220 231 241 249 277 307 314 317 324 339 340 330 329 325 319 317 318 321 326 318 309 297 292 294 284 253 278 286 286 281 282 289 290 283 276 277 282
199 205 219 222 224 236 242 230 223 231 244 251 265 270 284 294 311 322 319 321 321 322 325 329 331 325 319 317 310 305 295 284 273 276 284 289 292 290 289 283 273 265 268 185
210 216 225 232 238 237 235 228 222 230 239 249 260 265 273 280 295 307 306 306 308 318 327 330 314 302 317 326 318 284 279 271 271 272 267 241 253 264 266 265 280 274 261 246
190 202 211 222 226 220 216 217 218 228 242 250 255 258 270 283 292 297 297 298 306 326 337 334 317 323 320 315 293 275 272 274 280 284 288 282 271 261 254 245 246 273 299 291
199 208 203 203 201 204 206 212 218 229 238 233 239 257 278 285 285 288 290 307 327 331 323 305 293 298 307 314 278 271 260 259 272 289 292 299 299 293 281 263 252 255 238 254
222 217 205 195 192 201 208 212 209 210 212 231 248 278 290 284 281 290 305 315 318 322 308 312 312 325 310 295 291 292 284 282 281 286 295 297 295 298 296 290 285 278 265 265
230 219 203 193 193 192 194 200 193 191 205 232 253 285 300 306 304 299 310 328 320 318 308 317 337 321 298 282 291 288 284 276 276 276 276 278 280 283 283 281 287 288 288 289
214 193 183 179 180 182 184 186 189 196 213 233 248 254 269 280 303 315 324 330 309 304 307 327 302 289 280 276 278 282 281 272 265 268 270 271 275 279 283 286 281 272 265 262
170 163 158 164 168 145 139 162 175 187 199 200 209 194 268 315 311 324 329 318 306 288 294 272 244 261 268 282 282 288 289 291 292 293 287 282 282 284 281 278 277 268 259 252
137 136 124 112 89 92 107 105 112 129 148 167 172 45 26 19 350 309 299 311 311 294 294 300 296 272 285 290 282 279 282 282 277 281 297 296 287 288 294 293 278 274 266 257
123 117 123 125 116 78 37 57 70 48 93 90 69 39 36 27 355 350 345 332 330 326 333 340 337 326 322 321 325 327 323 326 332 334 325 326 333 344 349 338 333 325 309 299
Height
1453 1450 1451 1456 1458 1460 1463 1462 1465 1462 1461 1463 1466 1471 1476 1479 1481 1482 1484 1486 1487 1489 1491 1493 1495 1496 1498 1500 1502 1504 1506 1508 1509 1511 1512 1514 1514 1515 1515 1516 1516 1516 1517 1516
1459 1454 1453 1456 1456 1458 1461 1461 1461 1461 1463 1463 1469 1473 1477 1479 1481 1482 1484 1486 1487 1489 1490 1492 1493 1494 1496 1498 1499 1501 1503 1505 1506 1507 1509 1510 1511 1511 1512 1512 1513 1513 1513 1512
1458 1455 1457 1462 1459 1458 1460 1459 1460 1461 1462 1467 1471 1474 1477 1479 1480 1482 1483 1485 1487 1489 1490 1491 1492 1493 1494 1496 1497 1499 1500 1502 1503 1504 1505 1506 1507 1508 1508 1508 1509 1509 1509 1508
1455 1462 1472 1459 1456 1457 1459 1461 1462 1464 1466 1469 1473 1476 1478 1480 1481 1482 1483 1484 1485 1488 1489 1490 1491 1492 1493 1494 1495 1496 1498 1499 1500 1501 1502 1503 1503 1503 1504 1504 1505 1505 1505 1505
1455 1459 1459 1460 1459 1459 1461 1465 1466 1467 1470 1473 1474 1475 1478 1481 1482 1483 1483 1483 1484 1486 1488 1489 1489 1490 1491 1492 1493 1494 1494 1495 1496 1497 1498 1498 1499 1499 1499 1500 1500 1500 1501 1501
1455 1460 1463 1456 1458 1461 1463 1467 1469 1470 1472 1474 1474 1472 1476 1481 1482 1482 1482 1483 1483 1484 1487 1488 1488 1488 1489 1490 1490 1491 1491 1492 1493 1494 1494 1495 1495 1495 1495 1495 1496 1496 1496 1496
1455 1457 1453 1458 1461 1463 1468 1466 1470 1471 1474 1475 1476 1477 1480 1481 1481 1482 1482 1482 1482 1483 1485 1486 1486 1486 1487 1488 1488 1488 1489 1489 1490 1490 1490 1491 1491 1491 1491 1491 1491 1490 1490 1490
1454 1458 1461 1463 1462 1463 1467 1470 1471 1473 1475 1477 1478 1479 1480 1481 1481 1481 1481 1482 1482 1483 1484 1484 1484 1485 1485 1485 1486 1486 1486 1486 1487 1487 1488 1488 1487 1486 1486 1486 1486 1486 1486 1486
1457 1462 1466 1467 1467 1470 1471 1472 1473 1475 1476 1478 1479 1480 1480 1481 1481 1481 1481 1481 1482 1482 1483 1482 1482 1482 1482 1482 1482 1483 1483 1483 1484 1484 1484 1484 1483 1482 1482 1482 1482 1482 1482 1482
1462 1465 1467 1469 1470 1471 1472 1474 1475 1476 1477 1478 1479 1480 1480 1481 1481 1481 1481 1481 1481 1481 1481 1480 1480 1480 1480 1480 1479 1479 1480 1481 1481 1481 1480 1480 1480 1479 1479 1479 1478 1478 1478 1477
1463 1467 1468 1470 1472 1473 1474 1475 1475 1476 1477 1478 1479 1480 1480 1480 1480 1480 1481 1481 1481 1480 1480 1479 1478 1478 1478 1477 1477 1476 1477 1478 1478 1478 1477 1477 1476 1476 1475 1475 1474 1474 1473 1473
1461 1466 1467 1470 1472 1473 1474 1475 1476 1476 1477 1478 1478 1479 1479 1480 1480 1480 1480 1480 1480 1479 1478 1477 1476 1476 1476 1475 1475 1474 1474 1474 1474 1475 1474 1473 1473 1472 1471 1471 1470 1469 1468 1468
1466 1468 1469 1470 1472 1474 1474 1475 1476 1476 1477 1477 1477 1478 1479 1479 1479 1478 1478 1478 1477 1476 1475 1475 1474 1473 1473 1473 1472 1471 1471 1470 1470 1470 1470 1469 1469 1469 1468 1467 1466 1465 1464 1464
1467 1468 1469 1471 1472 1474 1474 1475 1476 1476 1477 1477 1477 1477 1477 1477 1477 1477 1476 1475 1474 1474 1473 1472 1472 1471 1470 1470 1469 1468 1468 1467 1466 1466 1465 1465 1466 1466 1465 1464 1463 1462 1461 1461
1468 1469 1470 1471 1472 1473 1474 1475 1475 1475 1476 1476 1476 1475 1475 1475 1475 1475 1474 1473 1472 1472 1471 1470 1469 1468 1467 1466 1465 1464 1464 1464 1463 1463 1463 1463 1463 1463 1462 1461 1460 1459 1459 1458
1468 1469 1470 1471 1471 1472 1473 1474 1474 1474 1474 1475 1475 1474 1474 1474 1473 1473 1472 1472 1471 1470 1468 1467 1466 1465 1464 1463 1462 1461 1461 1460 1460 1460 1460 1460 1460 1460 1459 1458 1457 1456 1456 1456
1467 1468 1469 1470 1471 1472 1472 1473 1473 1473 1473 1473 1474 1473 1473 1473 1472 1472 1471 1470 1469 1468 1467 1465 1464 1462 1461 1460 1459 1459 1458 1458 1457 1458 1458 1458 1458 1457 1457 1456 1455 1455 1454 1454
1467 1468 1468 1469 1470 1470 1471 1471 1471 1472 1472 1472 1472 1472 1472 1471 1470 1470 1469 1468 1467 1465 1464 1463 1462 1460 1459 1458 1457 1457 1456 1456 1456 1455 1456 1456 1456 1455 1455 1455 1454 1453 1453 1453
1465 1466 1467 1467 1468 1468 1469 1469 1470 1470 1470 1470 1470 1470 1470 1469 1469 1468 1467 1466 1465 1463 1462 1461 1460 1458 1457 1456 1455 1455 1454 1454 1454 1454 1453 1453 1453 1453 1453 1453 1453 1452 1452 1452
1463 1464 1464 1465 1465 1466 1467 1467 1468 1468 1469 1469 1469 1469 1468 1468 1467 1466 1465 1464 1463 1462 1461 1460 1459 1457 1456 1455 1454 1454 1454 1453 1453 1453 1452 1452 1451 1451 1452 1452 1451 1451 1451 1450
1461 1461 1462 1462 1463 1464 1465 1465 1466 1466 1467 1467 1467 1466 1466 1466 1465 1464 1463 1462 1461 1460 1459 1458 1457 1456 1455 1453 1452 1453 1452 1452 1452 1452 1451 1451 1451 1450 1450 1450 1450 1450 1449 1449
1460 1460 1460 1461 1461 1462 1462 1463 1464 1464 1464 1464 1464 1464 1464 1463 1463 1462 1461 1461 1460 1459 1458 1457 1456 1454 1453 1452 1452 1451 1451 1451 1451 1450 1450 1450 1449 1449 1449 1449 1448 1448 1448 1447
1458 1458 1459 1459 1460 1460 1461 1461 1462 1462 1462 1462 1462 1462 1462 1462 1461 1461 1460 1460 1459 1458 1456 1456 1454 1453 1452 1452 1451 1450 1450 1449 1449 1449 1449 1448 1448 1448 1447 1447 1447 1446 1446 1446
1457 1457 1457 1457 1458 1459 1459 1460 1460 1460 1460 1460 1461 1461 1461 1460 1460 1459 1459 1458 1457 1455 1455 1454 1453 1452 1451 1451 1450 1450 1449 1449 1448 1448 1448 1447 1447 1446 1446 1445 1445 1444 1444 1444
1456 1456 1456 1457 1457 1458 1458 1458 1458 1459 1459 1459 1460 1460 1460 1459 1458 1458 1457 1456 1455 1454 1453 1452 1451 1450 1450 1449 1449 1448 1448 1448 1447 1446 1446 1445 1445 1444 1443 1443 1443 1442 1442 1442
1456 1456 1456 1457 1457 1457 1458 1458 1458 1458 1458 1459 1459 1459 1459 1458 1457 1457 1456 1455 1454 1453 1452 1451 1450 1449 1448 1448 1447 1447 1446 1446 1445 1444 1444 1443 1443 1442 1441 1441 1441 1440 1440 1439
1456 1456 1457 1457 1457 1457 1457 1457 1457 1458 1458 1458 1458 1458 1458 1458 1457 1457 1456 1455 1454 1452 1452 1451 1449 1448 1447 1447 1446 1446 1445 1444 1444 1443 1442 1441 1441 1440 1439 1439 1439 1438 1438 1437